,,Stat6,,Stat2,,Stat8,,Stat9,,Stat10,,Wind1,,Wind1,
time,status,PA1M_AVG,status,PR1M_SUM,status,RH1M_AVG,status,SR1M_AVG,status,TA1M_AVG,status,W1dAve1m,status,W1sAve1m,
2004-03-09, 00:00:00,VALID,919.469,VALID,0,VALID,90.2661,VALID,0,VALID,20.7734,VALID,141,VALID,1.05243,
2004-03-09, 00:01:00,VALID,919.475,VALID,0,VALID,90.2966,VALID,0.0169808,VALID,20.754,VALID,145,VALID,0.920422,
2004-03-09, 00:02:00,VALID,919.463,VALID,0,VALID,90.4543,VALID,-0.0169808,VALID,20.7478,VALID,142,VALID,0.764236,
2004-03-09, 00:03:00,VALID,919.435,VALID,0,VALID,90.659,VALID,0,VALID,20.7376,VALID,110,VALID,1.31157,
2004-03-09, 00:04:00,VALID,919.436,VALID,0,VALID,90.5103,VALID,0.0339617,VALID,20.7155,VALID,125,VALID,1.36663,
2004-03-09, 00:05:00,VALID,919.411,VALID,0,VALID,90.5039,VALID,0,VALID,20.6986,VALID,137,VALID,1.3113,
2004-03-09, 00:06:00,VALID,919.425,VALID,0,VALID,90.5408,VALID,0,VALID,20.7093,VALID,140,VALID,1.7896,
2004-03-09, 00:07:00,VALID,919.413,VALID,0,VALID,90.4327,VALID,0,VALID,20.7126,VALID,125,VALID,1.94023,
2004-03-09, 00:08:00,VALID,919.417,VALID,0,VALID,90.5522,VALID,0.0169808,VALID,20.7121,VALID,138,VALID,1.04847,
2004-03-09, 00:09:00,VALID,919.381,VALID,0,VALID,90.5052,VALID,0,VALID,20.7217,VALID,158,VALID,1.22431,
2004-03-09, 00:10:00,VALID,919.369,VALID,0,VALID,90.4149,VALID,0,VALID,20.7185,VALID,180,VALID,1.05301,
2004-03-09, 00:11:00,VALID,919.387,VALID,0,VALID,90.4047,VALID,0,VALID,20.7183,VALID,135,VALID,1.00781,
2004-03-09, 00:12:00,VALID,919.392,VALID,0,VALID,90.5777,VALID,0,VALID,20.7215,VALID,138,VALID,1.47212,
2004-03-09, 00:13:00,VALID,919.386,VALID,0,VALID,90.6489,VALID,0,VALID,20.7153,VALID,118,VALID,1.09668,
2004-03-09, 00:14:00,VALID,919.362,VALID,0,VALID,90.6069,VALID,0,VALID,20.6887,VALID,148,VALID,1.19874,
2004-03-09, 00:15:00,VALID,919.352,VALID,0,VALID,90.3869,VALID,0,VALID,20.6956,VALID,173,VALID,1.37083,
2004-03-09, 00:16:00,VALID,919.342,VALID,0,VALID,90.0614,VALID,0,VALID,20.7056,VALID,144,VALID,0.582775,
2004-03-09, 00:17:00,VALID,919.347,VALID,0,VALID,90.1695,VALID,0.0169808,VALID,20.7279,VALID,108,VALID,0.759266,
2004-03-09, 00:18:00,VALID,919.319,VALID,0,VALID,90.2305,VALID,0.0169808,VALID,20.7344,VALID,140,VALID,1.65716,
2004-03-09, 00:19:00,VALID,919.295,VALID,0,VALID,90.3348,VALID,0.0169808,VALID,20.7409,VALID,134,VALID,1.39277,
2004-03-09, 00:20:00,VALID,919.273,VALID,0,VALID,90.3208,VALID,0,VALID,20.7446,VALID,146,VALID,0.99375,
2004-03-09, 00:21:00,VALID,919.276,VALID,0,VALID,90.4518,VALID,0,VALID,20.7285,VALID,126,VALID,1.75688,
2004-03-09, 00:22:00,VALID,919.266,VALID,0,VALID,90.6184,VALID,0,VALID,20.7056,VALID,127,VALID,1.29707,
2004-03-09, 00:23:00,VALID,919.269,VALID,0,VALID,90.5421,VALID,0,VALID,20.6924,VALID,130,VALID,1.21836,
2004-03-09, 00:24:00,VALID,919.266,VALID,0,VALID,90.4734,VALID,0,VALID,20.6763,VALID,150,VALID,1.93917,
2004-03-09, 00:25:00,VALID,919.241,VALID,0,VALID,90.4035,VALID,0,VALID,20.6894,VALID,169,VALID,1.27782,
2004-03-09, 00:26:00,VALID,919.237,VALID,0,VALID,90.6679,VALID,0.0339617,VALID,20.6924,VALID,154,VALID,1.50213,
2004-03-09, 00:27:00,VALID,919.235,VALID,0,VALID,90.5395,VALID,0.0169808,VALID,20.683,VALID,149,VALID,1.7816,
2004-03-09, 00:28:00,VALID,919.233,VALID,0,VALID,90.5446,VALID,0,VALID,20.6867,VALID,140,VALID,1.56027,
2004-03-09, 00:29:00,VALID,919.224,VALID,0,VALID,90.5497,VALID,0.0169808,VALID,20.69,VALID,146,VALID,1.75408,
2004-03-09, 00:30:00,VALID,919.211,VALID,0,VALID,90.4836,VALID,0.0339617,VALID,20.6962,VALID,127,VALID,1.54427,
2004-03-09, 00:31:00,VALID,919.202,VALID,0,VALID,89.9622,VALID,0.0679233,VALID,20.6892,VALID,95,VALID,1.58861,
2004-03-09, 00:32:00,VALID,919.186,VALID,0,VALID,89.6125,VALID,0.0169808,VALID,20.7279,VALID,113,VALID,1.76334,
2004-03-09, 00:33:00,VALID,919.152,VALID,0,VALID,88.8661,VALID,0.0339617,VALID,20.7761,VALID,148,VALID,1.83775,
2004-03-09, 00:34:00,VALID,919.189,VALID,0,VALID,88.4198,VALID,0.0679233,VALID,20.8475,VALID,142,VALID,2.06753,
2004-03-09, 00:35:00,VALID,919.148,VALID,0,VALID,88.29,VALID,0.0339617,VALID,20.9285,VALID,61,VALID,1.07719,
2004-03-09, 00:36:00,VALID,919.157,VALID,0,VALID,87.8666,VALID,0,VALID,20.9702,VALID,140,VALID,1.30804,
2004-03-09, 00:37:00,VALID,919.164,VALID,0,VALID,87.9035,VALID,0,VALID,21.0162,VALID,61,VALID,1.63597,
2004-03-09, 00:38:00,VALID,919.145,VALID,0,VALID,87.3414,VALID,0.0339617,VALID,21.0418,VALID,139,VALID,1.72828,
2004-03-09, 00:39:00,VALID,919.17,VALID,0,VALID,87.1736,VALID,0.0169808,VALID,21.0701,VALID,149,VALID,1.07262,
2004-03-09, 00:40:00,VALID,919.177,VALID,0,VALID,87.5754,VALID,0.0339617,VALID,21.0897,VALID,110,VALID,1.50949,
2004-03-09, 00:41:00,VALID,919.158,VALID,0,VALID,86.6306,VALID,0.0339617,VALID,21.0964,VALID,96,VALID,2.36483,
2004-03-09, 00:42:00,VALID,919.16,VALID,0,VALID,86.4602,VALID,0,VALID,21.1611,VALID,84,VALID,1.42634,
2004-03-09, 00:43:00,VALID,919.167,VALID,0,VALID,86.3941,VALID,0.0169808,VALID,21.1869,VALID,110,VALID,1.52734,
2004-03-09, 00:44:00,VALID,919.146,VALID,0,VALID,86.5136,VALID,0.0509425,VALID,21.203,VALID,112,VALID,1.25446,
2004-03-09, 00:45:00,VALID,919.147,VALID,0,VALID,86.8124,VALID,0.0339617,VALID,21.203,VALID,97,VALID,0.889737,
2004-03-09, 00:46:00,VALID,919.151,VALID,0,VALID,86.745,VALID,0.0169808,VALID,21.1772,VALID,92,VALID,1.27035,
2004-03-09, 00:47:00,VALID,919.123,VALID,0,VALID,86.7489,VALID,0.0339617,VALID,21.164,VALID,121,VALID,1.64993,
2004-03-09, 00:48:00,VALID,919.103,VALID,0,VALID,86.7552,VALID,0.0339617,VALID,21.1508,VALID,118,VALID,1.37391,
2004-03-09, 00:49:00,VALID,919.116,VALID,0,VALID,86.9701,VALID,0.0169808,VALID,21.164,VALID,113,VALID,0.810138,
2004-03-09, 00:50:00,VALID,919.14,VALID,0,VALID,87.0235,VALID,0.0509425,VALID,21.1476,VALID,110,VALID,1.59245,
2004-03-09, 00:51:00,VALID,919.132,VALID,0,VALID,87.152,VALID,0.0169808,VALID,21.1215,VALID,133,VALID,1.49944,
2004-03-09, 00:52:00,VALID,919.138,VALID,0,VALID,87.1202,VALID,0.0509425,VALID,21.1059,VALID,143,VALID,1.73242,
2004-03-09, 00:53:00,VALID,919.138,VALID,0,VALID,87.4915,VALID,0.0339617,VALID,21.1061,VALID,63,VALID,1.65518,
2004-03-09, 00:54:00,VALID,919.15,VALID,0,VALID,87.5957,VALID,0.0169808,VALID,21.0833,VALID,106,VALID,1.1814,
2004-03-09, 00:55:00,VALID,919.134,VALID,0,VALID,88.0675,VALID,0.0509425,VALID,21.0534,VALID,88,VALID,1.71989,
2004-03-09, 00:56:00,VALID,919.125,VALID,0,VALID,88.5507,VALID,0.0679233,VALID,21.0082,VALID,49,VALID,1.6633,
2004-03-09, 00:57:00,VALID,919.116,VALID,0,VALID,88.2926,VALID,0.0679233,VALID,20.957,VALID,111,VALID,1.29501,
2004-03-09, 00:58:00,VALID,919.086,VALID,0,VALID,88.3765,VALID,0,VALID,20.9444,VALID,126,VALID,1.58848,
2004-03-09, 00:59:00,VALID,919.061,VALID,0,VALID,88.6601,VALID,0.0509425,VALID,20.9277,VALID,141,VALID,1.14753,
2004-03-09, 01:00:00,VALID,919.027,VALID,0,VALID,88.4465,VALID,-0.0509425,VALID,20.9094,VALID,123,VALID,1.77943,
2004-03-09, 01:01:00,VALID,919.032,VALID,0,VALID,88.5329,VALID,-0.0849042,VALID,20.9039,VALID,128,VALID,1.87934,
2004-03-09, 01:02:00,VALID,919.025,VALID,0,VALID,88.6499,VALID,-0.0679233,VALID,20.9136,VALID,125,VALID,2.01155,
2004-03-09, 01:03:00,VALID,919.026,VALID,0,VALID,88.5253,VALID,-0.101885,VALID,20.8878,VALID,152,VALID,1.40057,
2004-03-09, 01:04:00,VALID,919.022,VALID,0,VALID,88.6067,VALID,-0.0849042,VALID,20.8846,VALID,136,VALID,1.53496,
2004-03-09, 01:05:00,VALID,918.956,VALID,0,VALID,88.6181,VALID,-0.101885,VALID,20.8943,VALID,93,VALID,2.2669,
2004-03-09, 01:06:00,VALID,918.938,VALID,0,VALID,88.7682,VALID,-0.0679233,VALID,20.8813,VALID,143,VALID,1.83385,
2004-03-09, 01:07:00,VALID,918.902,VALID,0,VALID,88.6868,VALID,-0.101885,VALID,20.8716,VALID,163,VALID,0.997514,
2004-03-09, 01:08:00,VALID,918.879,VALID,0,VALID,88.8572,VALID,-0.101885,VALID,20.8687,VALID,133,VALID,1.75821,
2004-03-09, 01:09:00,VALID,918.866,VALID,0,VALID,87.8552,VALID,-0.0849042,VALID,20.8619,VALID,157,VALID,2.61812,
2004-03-09, 01:10:00,VALID,918.862,VALID,0,VALID,87.6059,VALID,-0.101885,VALID,20.93,VALID,139,VALID,2.17118,
2004-03-09, 01:11:00,VALID,918.854,VALID,0,VALID,87.8895,VALID,-0.0509425,VALID,20.9788,VALID,143,VALID,1.7941,
2004-03-09, 01:12:00,VALID,918.849,VALID,0,VALID,88.0395,VALID,-0.101885,VALID,20.9691,VALID,134,VALID,2.00488,
2004-03-09, 01:13:00,VALID,918.842,VALID,0,VALID,88.833,VALID,-0.101885,VALID,20.9295,VALID,101,VALID,1.25636,
2004-03-09, 01:14:00,VALID,918.845,VALID,0,VALID,88.6283,VALID,-0.0849042,VALID,20.8848,VALID,141,VALID,2.43448,
2004-03-09, 01:15:00,VALID,918.827,VALID,0,VALID,88.0459,VALID,-0.0509425,VALID,20.8749,VALID,132,VALID,2.34337,
2004-03-09, 01:16:00,VALID,918.82,VALID,0,VALID,88.2328,VALID,0.0169808,VALID,20.8765,VALID,76,VALID,1.51042,
2004-03-09, 01:17:00,VALID,918.815,VALID,0,VALID,88.2125,VALID,0,VALID,20.8964,VALID,87,VALID,1.2629,
2004-03-09, 01:18:00,VALID,918.798,VALID,0,VALID,88.1603,VALID,0,VALID,20.8967,VALID,114,VALID,1.28924,
2004-03-09, 01:19:00,VALID,918.763,VALID,0,VALID,88.168,VALID,0.0169808,VALID,20.8865,VALID,153,VALID,2.07309,
2004-03-09, 01:20:00,VALID,918.766,VALID,0,VALID,88.0459,VALID,0,VALID,20.8897,VALID,147,VALID,2.76202,
2004-03-09, 01:21:00,VALID,918.769,VALID,0,VALID,88.2112,VALID,0.0169808,VALID,20.89,VALID,149,VALID,2.43806,
2004-03-09, 01:22:00,VALID,918.768,VALID,0,VALID,88.1807,VALID,0.0169808,VALID,20.8733,VALID,133,VALID,2.76687,
2004-03-09, 01:23:00,VALID,918.768,VALID,0,VALID,88.1273,VALID,0.0169808,VALID,20.8741,VALID,140,VALID,1.71522,
2004-03-09, 01:24:00,VALID,918.738,VALID,0,VALID,87.7623,VALID,0,VALID,20.8671,VALID,125,VALID,2.68304,
2004-03-09, 01:25:00,VALID,918.767,VALID,0,VALID,88.1934,VALID,0.0339617,VALID,20.8929,VALID,141,VALID,1.7167,
2004-03-09, 01:26:00,VALID,918.736,VALID,0,VALID,88.0828,VALID,0,VALID,20.8763,VALID,138,VALID,1.87314,
2004-03-09, 01:27:00,VALID,918.716,VALID,0,VALID,88.2595,VALID,0,VALID,20.8771,VALID,138,VALID,1.81559,
2004-03-09, 01:28:00,VALID,918.698,VALID,0,VALID,88.4058,VALID,0.0169808,VALID,20.8606,VALID,149,VALID,1.66502,
2004-03-09, 01:29:00,VALID,918.683,VALID,0,VALID,88.8089,VALID,0,VALID,20.841,VALID,131,VALID,1.9739,
2004-03-09, 01:30:00,VALID,918.662,VALID,0,VALID,89.2081,VALID,0.0339617,VALID,20.8084,VALID,146,VALID,2.6756,
2004-03-09, 01:31:00,VALID,918.651,VALID,0,VALID,89.5667,VALID,0.0169808,VALID,20.7503,VALID,137,VALID,2.56197,
2004-03-09, 01:32:00,VALID,918.675,VALID,0,VALID,89.9597,VALID,0.0679233,VALID,20.6922,VALID,120,VALID,1.6502,
2004-03-09, 01:33:00,VALID,918.663,VALID,0,VALID,89.9406,VALID,0.0509425,VALID,20.6502,VALID,124,VALID,1.35847,
2004-03-09, 01:34:00,VALID,918.624,VALID,0,VALID,90.1835,VALID,0.0339617,VALID,20.6211,VALID,158,VALID,1.24146,
2004-03-09, 01:35:00,VALID,918.619,VALID,0,VALID,90.0309,VALID,0.0509425,VALID,20.6015,VALID,131,VALID,1.45808,
2004-03-09, 01:36:00,VALID,918.61,VALID,0,VALID,90.1847,VALID,0.0679233,VALID,20.599,VALID,147,VALID,1.47874,
2004-03-09, 01:37:00,VALID,918.614,VALID,0,VALID,90.2712,VALID,0.0849042,VALID,20.5985,VALID,156,VALID,1.86563,
2004-03-09, 01:38:00,VALID,918.611,VALID,0,VALID,90.4225,VALID,0.0339617,VALID,20.5826,VALID,153,VALID,2.68285,
2004-03-09, 01:39:00,VALID,918.615,VALID,0,VALID,90.6972,VALID,0.0849042,VALID,20.5597,VALID,141,VALID,1.86808,
2004-03-09, 01:40:00,VALID,918.618,VALID,0,VALID,90.921,VALID,0.0509425,VALID,20.5339,VALID,143,VALID,2.8378,
2004-03-09, 01:41:00,VALID,918.573,VALID,0,VALID,91.0876,VALID,0.0339617,VALID,20.5019,VALID,123,VALID,1.97448,
2004-03-09, 01:42:00,VALID,918.587,VALID,0,VALID,91.567,VALID,0.0679233,VALID,20.4693,VALID,123,VALID,1.43448,
2004-03-09, 01:43:00,VALID,918.579,VALID,0,VALID,91.8277,VALID,0.0679233,VALID,20.4335,VALID,85,VALID,2.0904,
2004-03-09, 01:44:00,VALID,918.58,VALID,0,VALID,91.9446,VALID,0.0339617,VALID,20.3918,VALID,106,VALID,1.90941,
2004-03-09, 01:45:00,VALID,918.572,VALID,0,VALID,91.9446,VALID,-0.0169808,VALID,20.3635,VALID,97,VALID,1.60369,
2004-03-09, 01:46:00,VALID,918.535,VALID,0,VALID,92.1748,VALID,-0.0509425,VALID,20.3446,VALID,114,VALID,1.36886,
2004-03-09, 01:47:00,VALID,918.547,VALID,0,VALID,92.0349,VALID,-0.0339617,VALID,20.3444,VALID,162,VALID,2.75707,
2004-03-09, 01:48:00,VALID,918.516,VALID,0,VALID,92.0387,VALID,-0.0509425,VALID,20.3382,VALID,144,VALID,1.8608,
2004-03-09, 01:49:00,VALID,918.479,VALID,0,VALID,91.9459,VALID,-0.0169808,VALID,20.3548,VALID,139,VALID,1.6456,
2004-03-09, 01:50:00,VALID,918.49,VALID,0,VALID,92.1964,VALID,-0.0849042,VALID,20.3581,VALID,143,VALID,1.83739,
2004-03-09, 01:51:00,VALID,918.47,VALID,0,VALID,92.3159,VALID,-0.0169808,VALID,20.3387,VALID,122,VALID,1.99716,
2004-03-09, 01:52:00,VALID,918.469,VALID,0,VALID,91.9802,VALID,-0.0339617,VALID,20.3225,VALID,139,VALID,2.05669,
2004-03-09, 01:53:00,VALID,918.459,VALID,0,VALID,91.6382,VALID,-0.0339617,VALID,20.3451,VALID,154,VALID,2.60211,
2004-03-09, 01:54:00,VALID,918.442,VALID,0,VALID,91.4398,VALID,-0.0679233,VALID,20.3774,VALID,136,VALID,1.65004,
2004-03-09, 01:55:00,VALID,918.431,VALID,0,VALID,91.4106,VALID,-0.0679233,VALID,20.4097,VALID,142,VALID,1.90301,
2004-03-09, 01:56:00,VALID,918.391,VALID,0,VALID,91.5441,VALID,-0.0679233,VALID,20.4162,VALID,147,VALID,2.83043,
2004-03-09, 01:57:00,VALID,918.45,VALID,0,VALID,91.2643,VALID,-0.0509425,VALID,20.4165,VALID,135,VALID,2.00959,
2004-03-09, 01:58:00,VALID,918.443,VALID,0,VALID,91.3101,VALID,-0.0339617,VALID,20.4426,VALID,139,VALID,2.52028,
2004-03-09, 01:59:00,VALID,918.427,VALID,0,VALID,90.9464,VALID,-0.0679233,VALID,20.4552,VALID,125,VALID,2.62589,
2004-03-09, 02:00:00,VALID,918.435,VALID,0,VALID,90.4645,VALID,0,VALID,20.48,VALID,146,VALID,2.34606,
2004-03-09, 02:01:00,VALID,918.43,VALID,0,VALID,90.612,VALID,0.0339617,VALID,20.5215,VALID,130,VALID,2.72293,
2004-03-09, 02:02:00,VALID,918.416,VALID,0,VALID,90.846,VALID,0.0169808,VALID,20.5245,VALID,132,VALID,2.41109,
2004-03-09, 02:03:00,VALID,918.414,VALID,0,VALID,90.9986,VALID,0.0679233,VALID,20.5051,VALID,144,VALID,2.87863,
2004-03-09, 02:04:00,VALID,918.426,VALID,0,VALID,91.0609,VALID,0.0509425,VALID,20.4787,VALID,119,VALID,2.1685,
2004-03-09, 02:05:00,VALID,918.429,VALID,0,VALID,91.2414,VALID,0.0679233,VALID,20.4795,VALID,106,VALID,1.50343,
2004-03-09, 02:06:00,VALID,918.447,VALID,0,VALID,90.8816,VALID,0.0679233,VALID,20.4566,VALID,96,VALID,1.99019,
2004-03-09, 02:07:00,VALID,918.441,VALID,0,VALID,90.659,VALID,0.0849042,VALID,20.4594,VALID,112,VALID,1.59411,
2004-03-09, 02:08:00,VALID,918.428,VALID,0,VALID,90.7786,VALID,0.0339617,VALID,20.4959,VALID,142,VALID,1.72563,
2004-03-09, 02:09:00,VALID,918.362,VALID,0,VALID,90.8701,VALID,0.0169808,VALID,20.4927,VALID,150,VALID,1.63351,
2004-03-09, 02:10:00,VALID,918.348,VALID,0,VALID,90.982,VALID,0.0339617,VALID,20.4889,VALID,107,VALID,1.16661,
2004-03-09, 02:11:00,VALID,918.33,VALID,0,VALID,91.1079,VALID,0.0509425,VALID,20.4795,VALID,134,VALID,1.85045,
2004-03-09, 02:12:00,VALID,918.323,VALID,0,VALID,91.4741,VALID,0.0679233,VALID,20.4666,VALID,67,VALID,1.93314,
2004-03-09, 02:13:00,VALID,918.302,VALID,0,VALID,91.1397,VALID,0.0509425,VALID,20.4308,VALID,121,VALID,1.91523,
2004-03-09, 02:14:00,VALID,918.298,VALID,0,VALID,91.1308,VALID,0.0679233,VALID,20.4502,VALID,126,VALID,2.91661,
2004-03-09, 02:15:00,VALID,918.259,VALID,0,VALID,90.977,VALID,-0.0169808,VALID,20.4676,VALID,131,VALID,2.60011,
2004-03-09, 02:16:00,VALID,918.247,VALID,0,VALID,91.0507,VALID,-0.0339617,VALID,20.4547,VALID,116,VALID,2.13881,
2004-03-09, 02:17:00,VALID,918.247,VALID,0,VALID,90.982,VALID,-0.0679233,VALID,20.4679,VALID,128,VALID,1.82049,
2004-03-09, 02:18:00,VALID,918.207,VALID,0,VALID,90.804,VALID,-0.0849042,VALID,20.4813,VALID,125,VALID,1.27458,
2004-03-09, 02:19:00,VALID,918.17,VALID,0,VALID,90.1084,VALID,-0.0849042,VALID,20.5233,VALID,143,VALID,3.67645,
2004-03-09, 02:20:00,VALID,918.177,VALID,0,VALID,90.0067,VALID,-0.0169808,VALID,20.607,VALID,117,VALID,2.11607,
2004-03-09, 02:21:00,VALID,918.144,VALID,0,VALID,90.3411,VALID,-0.0849042,VALID,20.6105,VALID,114,VALID,2.35738,
2004-03-09, 02:22:00,VALID,918.156,VALID,0,VALID,90.6705,VALID,-0.0339617,VALID,20.568,VALID,115,VALID,2.23419,
2004-03-09, 02:23:00,VALID,918.135,VALID,0,VALID,90.7531,VALID,-0.0849042,VALID,20.5298,VALID,123,VALID,2.20033,
2004-03-09, 02:24:00,VALID,918.113,VALID,0,VALID,90.0881,VALID,-0.0849042,VALID,20.5362,VALID,112,VALID,3.19318,
2004-03-09, 02:25:00,VALID,918.085,VALID,0,VALID,89.5578,VALID,-0.0339617,VALID,20.6167,VALID,46,VALID,3.86421,
2004-03-09, 02:26:00,VALID,918.08,VALID,0,VALID,89.1776,VALID,-0.0339617,VALID,20.6679,VALID,85,VALID,2.3658,
2004-03-09, 02:27:00,VALID,918.059,VALID,0,VALID,88.8139,VALID,-0.0679233,VALID,20.7295,VALID,97,VALID,1.73274,
2004-03-09, 02:28:00,VALID,918.071,VALID,0,VALID,89.081,VALID,-0.0169808,VALID,20.7588,VALID,95,VALID,1.30291,
2004-03-09, 02:29:00,VALID,918.061,VALID,0,VALID,89.3747,VALID,-0.0339617,VALID,20.7424,VALID,86,VALID,1.96094,
2004-03-09, 02:30:00,VALID,917.996,VALID,0,VALID,88.0167,VALID,0,VALID,20.7807,VALID,75,VALID,3.06623,
2004-03-09, 02:31:00,VALID,917.988,VALID,0,VALID,88.1616,VALID,0.0339617,VALID,20.8668,VALID,132,VALID,2.05316,
2004-03-09, 02:32:00,VALID,917.99,VALID,0,VALID,88.4973,VALID,0.0509425,VALID,20.8577,VALID,131,VALID,2.66592,
2004-03-09, 02:33:00,VALID,917.969,VALID,0,VALID,89.0339,VALID,0.0169808,VALID,20.7925,VALID,133,VALID,2.08485,
2004-03-09, 02:34:00,VALID,917.975,VALID,0,VALID,89.3798,VALID,0.0339617,VALID,20.7384,VALID,99,VALID,1.8058,
2004-03-09, 02:35:00,VALID,917.949,VALID,0,VALID,89.8363,VALID,0.0169808,VALID,20.6827,VALID,85,VALID,1.30887,
2004-03-09, 02:36:00,VALID,917.947,VALID,0,VALID,90.2687,VALID,0,VALID,20.6345,VALID,134,VALID,2.23862,
2004-03-09, 02:37:00,VALID,917.955,VALID,0,VALID,90.6234,VALID,0.0509425,VALID,20.5831,VALID,116,VALID,1.72638,
2004-03-09, 02:38:00,VALID,917.968,VALID,0,VALID,90.9388,VALID,0.0339617,VALID,20.5317,VALID,102,VALID,1.90625,
2004-03-09, 02:39:00,VALID,917.962,VALID,0,VALID,91.0291,VALID,0.0339617,VALID,20.4862,VALID,93,VALID,1.53361,
2004-03-09, 02:40:00,VALID,917.926,VALID,0,VALID,91.3076,VALID,0.0509425,VALID,20.4666,VALID,133,VALID,1.58448,
2004-03-09, 02:41:00,VALID,917.905,VALID,0,VALID,91.188,VALID,0.0509425,VALID,20.434,VALID,139,VALID,1.72838,
2004-03-09, 02:42:00,VALID,917.877,VALID,0,VALID,91.1601,VALID,0.0509425,VALID,20.4408,VALID,102,VALID,1.36914,
2004-03-09, 02:43:00,VALID,917.877,VALID,0,VALID,91.1944,VALID,0.0509425,VALID,20.434,VALID,91,VALID,1.88077,
2004-03-09, 02:44:00,VALID,917.853,VALID,0,VALID,91.2643,VALID,0.0679233,VALID,20.4373,VALID,143,VALID,2.37865,
2004-03-09, 02:45:00,VALID,917.851,VALID,0,VALID,91.3241,VALID,0.0339617,VALID,20.4211,VALID,127,VALID,2.00713,
2004-03-09, 02:46:00,VALID,917.84,VALID,0,VALID,91.4907,VALID,0.0339617,VALID,20.4147,VALID,127,VALID,2.38243,
2004-03-09, 02:47:00,VALID,917.821,VALID,0,VALID,91.4932,VALID,0.0679233,VALID,20.4085,VALID,136,VALID,2.08441,
2004-03-09, 02:48:00,VALID,917.809,VALID,0,VALID,91.4284,VALID,0.0169808,VALID,20.3985,VALID,146,VALID,2.30766,
2004-03-09, 02:49:00,VALID,917.757,VALID,0,VALID,90.8307,VALID,0,VALID,20.4224,VALID,157,VALID,3.3231,
2004-03-09, 02:50:00,VALID,917.763,VALID,0,VALID,90.5878,VALID,0,VALID,20.4634,VALID,111,VALID,2.01054,
2004-03-09, 02:51:00,VALID,917.759,VALID,0,VALID,90.8155,VALID,0.0509425,VALID,20.4957,VALID,135,VALID,2.12427,
2004-03-09, 02:52:00,VALID,917.741,VALID,0,VALID,90.9121,VALID,0.0679233,VALID,20.4924,VALID,134,VALID,2.00419,
2004-03-09, 02:53:00,VALID,917.722,VALID,0,VALID,91.1016,VALID,0.0339617,VALID,20.483,VALID,120,VALID,1.59884,
2004-03-09, 02:54:00,VALID,917.739,VALID,0,VALID,91.2135,VALID,0.0339617,VALID,20.4636,VALID,99,VALID,1.39996,
2004-03-09, 02:55:00,VALID,917.729,VALID,0,VALID,91.1677,VALID,0.0169808,VALID,20.4475,VALID,151,VALID,2.58784,
2004-03-09, 02:56:00,VALID,917.708,VALID,0,VALID,91.0037,VALID,0.0679233,VALID,20.4335,VALID,149,VALID,2.44345,
2004-03-09, 02:57:00,VALID,917.725,VALID,0,VALID,90.9668,VALID,0.0169808,VALID,20.4574,VALID,133,VALID,1.92985,
2004-03-09, 02:58:00,VALID,917.714,VALID,0,VALID,90.6336,VALID,0.0339617,VALID,20.4599,VALID,134,VALID,1.77852,
2004-03-09, 02:59:00,VALID,917.686,VALID,0,VALID,89.8376,VALID,0,VALID,20.4889,VALID,131,VALID,2.67312,
2004-03-09, 03:00:00,VALID,917.702,VALID,0,VALID,89.6265,VALID,0.0339617,VALID,20.5734,VALID,115,VALID,2.46782,
2004-03-09, 03:01:00,VALID,917.725,VALID,0,VALID,89.6062,VALID,0.0169808,VALID,20.6122,VALID,114,VALID,1.39462,
2004-03-09, 03:02:00,VALID,917.722,VALID,0,VALID,88.9169,VALID,0.0169808,VALID,20.6383,VALID,122,VALID,2.23783,
2004-03-09, 03:03:00,VALID,917.73,VALID,0,VALID,88.6537,VALID,0.0339617,VALID,20.6698,VALID,120,VALID,2.46322,
2004-03-09, 03:04:00,VALID,917.747,VALID,0,VALID,88.6308,VALID,0.0169808,VALID,20.7322,VALID,99,VALID,1.88081,
2004-03-09, 03:05:00,VALID,917.734,VALID,0,VALID,88.5978,VALID,0.0509425,VALID,20.7349,VALID,85,VALID,1.99144,
2004-03-09, 03:06:00,VALID,917.724,VALID,0,VALID,88.5418,VALID,0.0339617,VALID,20.7347,VALID,104,VALID,1.26285,
2004-03-09, 03:07:00,VALID,917.715,VALID,0,VALID,88.1731,VALID,0.0169808,VALID,20.7414,VALID,136,VALID,2.70521,
2004-03-09, 03:08:00,VALID,917.74,VALID,0,VALID,88.1324,VALID,0.0339617,VALID,20.7635,VALID,101,VALID,2.36514,
2004-03-09, 03:09:00,VALID,917.75,VALID,0,VALID,88.3702,VALID,0.0339617,VALID,20.7799,VALID,109,VALID,2.20871,
2004-03-09, 03:10:00,VALID,917.718,VALID,0,VALID,88.7478,VALID,0.0339617,VALID,20.764,VALID,135,VALID,2.24423,
2004-03-09, 03:11:00,VALID,917.694,VALID,0,VALID,88.7059,VALID,0.0509425,VALID,20.7312,VALID,129,VALID,1.76858,
2004-03-09, 03:12:00,VALID,917.674,VALID,0,VALID,88.8229,VALID,0,VALID,20.715,VALID,131,VALID,1.68187,
2004-03-09, 03:13:00,VALID,917.638,VALID,0,VALID,88.5736,VALID,0,VALID,20.7126,VALID,137,VALID,2.92522,
2004-03-09, 03:14:00,VALID,917.611,VALID,0,VALID,88.7377,VALID,0.0339617,VALID,20.715,VALID,143,VALID,1.40937,
2004-03-09, 03:15:00,VALID,917.617,VALID,0,VALID,88.6931,VALID,-0.0509425,VALID,20.7091,VALID,100,VALID,1.46373,
2004-03-09, 03:16:00,VALID,917.599,VALID,0,VALID,88.9894,VALID,-0.101885,VALID,20.7004,VALID,98,VALID,1.29033,
2004-03-09, 03:17:00,VALID,917.611,VALID,0,VALID,88.8292,VALID,-0.0679233,VALID,20.688,VALID,112,VALID,1.9335,
2004-03-09, 03:18:00,VALID,917.626,VALID,0,VALID,88.5228,VALID,-0.0509425,VALID,20.6813,VALID,91,VALID,2.90644,
2004-03-09, 03:19:00,VALID,917.57,VALID,0,VALID,88.2455,VALID,-0.0679233,VALID,20.7134,VALID,71,VALID,1.88408,
2004-03-09, 03:20:00,VALID,917.579,VALID,0,VALID,88.3778,VALID,-0.0679233,VALID,20.7424,VALID,115,VALID,1.44034,
2004-03-09, 03:21:00,VALID,917.545,VALID,0,VALID,88.5278,VALID,-0.0849042,VALID,20.7327,VALID,127,VALID,1.77144,
2004-03-09, 03:22:00,VALID,917.541,VALID,0,VALID,88.3066,VALID,-0.0849042,VALID,20.7198,VALID,134,VALID,1.19131,
2004-03-09, 03:23:00,VALID,917.52,VALID,0,VALID,88.4286,VALID,-0.0679233,VALID,20.7295,VALID,127,VALID,1.45898,
2004-03-09, 03:24:00,VALID,917.486,VALID,0,VALID,88.3333,VALID,-0.0849042,VALID,20.7131,VALID,138,VALID,1.22602,
2004-03-09, 03:25:00,VALID,917.47,VALID,0,VALID,88.3727,VALID,-0.0509425,VALID,20.7236,VALID,118,VALID,1.65835,
2004-03-09, 03:26:00,VALID,917.468,VALID,0,VALID,88.2964,VALID,-0.0679233,VALID,20.7064,VALID,131,VALID,1.21538,
2004-03-09, 03:27:00,VALID,917.463,VALID,0,VALID,88.3854,VALID,-0.0679233,VALID,20.7169,VALID,116,VALID,1.85547,
2004-03-09, 03:28:00,VALID,917.464,VALID,0,VALID,88.3638,VALID,-0.0679233,VALID,20.7106,VALID,99,VALID,1.49814,
2004-03-09, 03:29:00,VALID,917.445,VALID,0,VALID,88.1171,VALID,-0.0849042,VALID,20.6972,VALID,132,VALID,2.07143,
2004-03-09, 03:30:00,VALID,917.45,VALID,0,VALID,87.9938,VALID,-0.0169808,VALID,20.7193,VALID,128,VALID,1.44453,
2004-03-09, 03:31:00,VALID,917.449,VALID,0,VALID,88.1591,VALID,0.0169808,VALID,20.7215,VALID,132,VALID,1.42148,
2004-03-09, 03:32:00,VALID,917.459,VALID,0,VALID,88.1146,VALID,0.0169808,VALID,20.7183,VALID,138,VALID,1.77398,
2004-03-09, 03:33:00,VALID,917.452,VALID,0,VALID,88.0739,VALID,0,VALID,20.7183,VALID,125,VALID,1.51599,
2004-03-09, 03:34:00,VALID,917.472,VALID,0,VALID,87.8959,VALID,-0.0169808,VALID,20.725,VALID,147,VALID,1.76283,
2004-03-09, 03:35:00,VALID,917.481,VALID,0,VALID,87.8552,VALID,0.0169808,VALID,20.7349,VALID,90,VALID,1.37918,